Time,TemperatureF,DewpointF,PressureIn,WindDirection,WindDirectionDegrees,WindSpeedMPH,WindSpeedGustMPH,Humidity,HourlyPrecipIn,Conditions,Clouds,dailyrainin,SolarRadiationWatts/m^2,SoftwareType,DateUTC
2013-12-03 00:02:00,47.9,45.0,30.27,South,189,10.0,-999.0,90,-99.99,,,0.00,0,weatherlink.com 1.10,2013-12-03 00:02:00,
2013-12-03 00:17:00,47.9,45.0,30.27,SW,226,6.0,-999.0,90,-99.99,,,0.00,0,weatherlink.com 1.10,2013-12-03 00:17:00,
2013-12-03 00:32:00,47.8,45.0,30.27,SSW,192,13.0,-999.0,91,-99.99,,,0.00,0,weatherlink.com 1.10,2013-12-03 00:32:00,
2013-12-03 00:47:00,47.8,46.0,30.26,SW,223,2.0,-999.0,92,-99.99,,,0.00,0,weatherlink.com 1.10,2013-12-03 00:47:00,
2013-12-03 01:02:00,47.7,46.0,30.26,SW,236,6.0,-999.0,92,-99.99,,,0.00,0,weatherlink.com 1.10,2013-12-03 01:02:00,
2013-12-03 01:17:00,47.8,45.0,30.25,SW,217,7.0,-999.0,91,-99.99,,,0.00,0,weatherlink.com 1.10,2013-12-03 01:17:00,
2013-12-03 01:32:00,47.9,46.0,30.25,SSW,203,5.0,-999.0,91,-99.99,,,0.00,0,weatherlink.com 1.10,2013-12-03 01:32:00,
2013-12-03 01:47:00,47.9,46.0,30.25,South,188,5.0,-999.0,91,-99.99,,,0.00,0,weatherlink.com 1.10,2013-12-03 01:47:00,
2013-12-03 02:02:00,48.2,46.0,30.25,South,188,7.0,-999.0,91,-99.99,,,0.00,0,weatherlink.com 1.10,2013-12-03 02:02:00,
2013-12-03 02:17:00,48.2,46.0,30.25,SSW,194,8.0,-999.0,91,-99.99,,,0.00,0,weatherlink.com 1.10,2013-12-03 02:17:00,
2013-12-03 02:32:00,48.2,46.0,30.25,SSW,211,3.0,-999.0,91,-99.99,,,0.00,0,weatherlink.com 1.10,2013-12-03 02:32:00,
2013-12-03 02:47:00,48.1,46.0,30.25,SSW,207,5.0,-999.0,91,-99.99,,,0.00,0,weatherlink.com 1.10,2013-12-03 02:47:00,
2013-12-03 03:02:00,48.1,46.0,30.24,South,190,5.0,-999.0,91,-99.99,,,0.00,0,weatherlink.com 1.10,2013-12-03 03:02:00,
2013-12-03 03:17:00,48.0,46.0,30.24,SSW,194,11.0,-999.0,92,-99.99,,,0.00,0,weatherlink.com 1.10,2013-12-03 03:17:00,
2013-12-03 03:32:00,48.0,46.0,30.23,SSE,165,7.0,-999.0,92,-99.99,,,0.00,0,weatherlink.com 1.10,2013-12-03 03:32:00,
2013-12-03 03:47:00,48.0,46.0,30.23,SW,225,6.0,-999.0,92,-99.99,,,0.00,0,weatherlink.com 1.10,2013-12-03 03:47:00,
2013-12-03 04:02:00,48.1,46.0,30.23,South,185,1.0,-999.0,92,-99.99,,,0.00,0,weatherlink.com 1.10,2013-12-03 04:02:00,
2013-12-03 04:17:00,48.1,46.0,30.22,SE,142,6.0,-999.0,93,-99.99,,,0.00,0,weatherlink.com 1.10,2013-12-03 04:17:00,
2013-12-03 04:32:00,47.9,46.0,30.22,SW,219,3.0,-999.0,94,-99.99,,,0.00,0,weatherlink.com 1.10,2013-12-03 04:32:00,
2013-12-03 04:47:00,47.7,46.0,30.21,SSW,209,5.0,-999.0,94,-99.99,,,0.00,0,weatherlink.com 1.10,2013-12-03 04:47:00,
2013-12-03 05:03:00,47.7,46.0,30.21,SSW,193,9.0,-999.0,94,-99.99,,,0.00,0,weatherlink.com 1.10,2013-12-03 05:03:00,
2013-12-03 05:18:00,47.7,46.0,30.21,SSE,165,4.0,-999.0,94,-99.99,,,0.00,0,weatherlink.com 1.10,2013-12-03 05:18:00,
2013-12-03 05:33:00,47.8,46.0,30.21,SW,215,7.0,-999.0,94,-99.99,,,0.00,0,weatherlink.com 1.10,2013-12-03 05:33:00,
2013-12-03 05:48:00,47.9,46.0,30.20,South,186,4.0,-999.0,94,-99.99,,,0.00,0,weatherlink.com 1.10,2013-12-03 05:48:00,
2013-12-03 06:03:00,48.0,46.0,30.20,SSE,167,8.0,-999.0,94,-99.99,,,0.00,0,weatherlink.com 1.10,2013-12-03 06:03:00,
2013-12-03 06:18:00,48.1,47.0,30.20,SSW,208,5.0,-999.0,94,-99.99,,,0.00,0,weatherlink.com 1.10,2013-12-03 06:18:00,
2013-12-03 06:33:00,48.1,47.0,30.21,South,176,11.0,-999.0,94,-99.99,,,0.00,0,weatherlink.com 1.10,2013-12-03 06:33:00,
2013-12-03 06:48:00,48.2,47.0,30.20,SW,223,8.0,-999.0,94,-99.99,,,0.00,0,weatherlink.com 1.10,2013-12-03 06:48:00,
2013-12-03 07:03:00,48.2,47.0,30.20,SSW,202,6.0,-999.0,94,-99.99,,,0.00,0,weatherlink.com 1.10,2013-12-03 07:03:00,
2013-12-03 07:18:00,48.3,47.0,30.20,WSW,237,6.0,-999.0,94,-99.99,,,0.00,0,weatherlink.com 1.10,2013-12-03 07:18:00,
2013-12-03 07:33:00,48.2,47.0,30.19,SSE,167,8.0,-999.0,94,-99.99,,,0.00,0,weatherlink.com 1.10,2013-12-03 07:33:00,
2013-12-03 07:48:00,48.3,47.0,30.19,South,185,2.0,-999.0,94,-99.99,,,0.00,0,weatherlink.com 1.10,2013-12-03 07:48:00,
2013-12-03 08:03:00,48.3,47.0,30.19,WSW,240,7.0,-999.0,94,-99.99,,,0.00,0,weatherlink.com 1.10,2013-12-03 08:03:00,
2013-12-03 08:18:00,48.4,47.0,30.18,SSW,207,8.0,-999.0,94,-99.99,,,0.00,0,weatherlink.com 1.10,2013-12-03 08:18:00,
2013-12-03 08:33:00,48.3,47.0,30.19,SSW,202,8.0,-999.0,94,-99.99,,,0.00,0,weatherlink.com 1.10,2013-12-03 08:33:00,
2013-12-03 08:48:00,48.2,46.0,30.19,SW,216,6.0,-999.0,93,-99.99,,,0.00,0,weatherlink.com 1.10,2013-12-03 08:48:00,
2013-12-03 09:18:00,48.2,46.0,30.18,South,186,5.0,-999.0,93,-99.99,,,0.00,23,weatherlink.com 1.10,2013-12-03 09:18:00,
2013-12-03 09:33:00,48.4,47.0,30.18,South,182,7.0,-999.0,93,-99.99,,,0.00,32,weatherlink.com 1.10,2013-12-03 09:33:00,
2013-12-03 09:48:00,48.6,47.0,30.18,SSW,209,4.0,-999.0,93,-99.99,,,0.00,32,weatherlink.com 1.10,2013-12-03 09:48:00,
2013-12-03 10:03:00,48.7,47.0,30.17,South,185,6.0,-999.0,93,-99.99,,,0.00,42,weatherlink.com 1.10,2013-12-03 10:03:00,
2013-12-03 10:18:00,48.9,47.0,30.17,SSW,194,9.0,-999.0,93,-99.99,,,0.00,54,weatherlink.com 1.10,2013-12-03 10:18:00,
2013-12-03 10:33:00,48.9,47.0,30.17,SSW,203,11.0,-999.0,93,-99.99,,,0.00,16,weatherlink.com 1.10,2013-12-03 10:33:00,
2013-12-03 10:48:00,48.8,47.0,30.17,SW,229,6.0,-999.0,93,-99.99,,,0.00,19,weatherlink.com 1.10,2013-12-03 10:48:00,
2013-12-03 11:03:00,48.8,47.0,30.17,South,177,6.0,-999.0,93,-99.99,,,0.00,26,weatherlink.com 1.10,2013-12-03 11:03:00,
2013-12-03 11:18:00,48.9,47.0,30.16,SSW,211,4.0,-999.0,93,-99.99,,,0.00,21,weatherlink.com 1.10,2013-12-03 11:18:00,
2013-12-03 11:33:00,49.0,47.0,30.16,SW,217,10.0,-999.0,93,-99.99,,,0.00,25,weatherlink.com 1.10,2013-12-03 11:33:00,
2013-12-03 11:48:00,49.0,47.0,30.16,SSW,203,7.0,-999.0,93,-99.99,,,0.00,16,weatherlink.com 1.10,2013-12-03 11:48:00,
2013-12-03 12:03:00,48.9,47.0,30.15,South,186,7.0,-999.0,93,-99.99,,,0.00,19,weatherlink.com 1.10,2013-12-03 12:03:00,
2013-12-03 12:18:00,48.8,47.0,30.15,South,183,8.0,-999.0,93,-99.99,,,0.00,12,weatherlink.com 1.10,2013-12-03 12:18:00,
2013-12-03 12:33:00,48.9,47.0,30.14,South,183,3.0,-999.0,92,-99.99,,,0.00,12,weatherlink.com 1.10,2013-12-03 12:33:00,
2013-12-03 12:48:00,48.9,47.0,30.14,South,186,3.0,-999.0,92,-99.99,,,0.00,16,weatherlink.com 1.10,2013-12-03 12:48:00,
2013-12-03 13:04:00,49.0,47.0,30.13,SSW,195,11.0,-999.0,92,-99.99,,,0.00,21,weatherlink.com 1.10,2013-12-03 13:04:00,
2013-12-03 13:19:00,49.1,47.0,30.12,South,175,12.0,-999.0,93,-99.99,,,0.00,12,weatherlink.com 1.10,2013-12-03 13:19:00,
2013-12-03 13:34:00,49.0,47.0,30.12,SW,216,3.0,-999.0,93,-99.99,,,0.00,14,weatherlink.com 1.10,2013-12-03 13:34:00,
2013-12-03 13:49:00,48.9,47.0,30.11,South,171,6.0,-999.0,94,-99.99,,,0.00,7,weatherlink.com 1.10,2013-12-03 13:49:00,
2013-12-03 14:04:00,48.9,47.0,30.11,SW,228,5.0,-999.0,94,-99.99,,,0.00,11,weatherlink.com 1.10,2013-12-03 14:04:00,
2013-12-03 14:19:00,48.9,47.0,30.11,SSW,202,9.0,-999.0,94,-99.99,,,0.00,7,weatherlink.com 1.10,2013-12-03 14:19:00,
2013-12-03 14:34:00,48.8,47.0,30.10,SW,221,9.0,-999.0,94,-99.99,,,0.00,11,weatherlink.com 1.10,2013-12-03 14:34:00,
2013-12-03 14:49:00,48.9,47.0,30.10,South,173,11.0,-999.0,94,-99.99,,,0.00,16,weatherlink.com 1.10,2013-12-03 14:49:00,
2013-12-03 15:04:00,49.0,47.0,30.09,SSW,202,7.0,-999.0,94,-99.99,,,0.00,14,weatherlink.com 1.10,2013-12-03 15:04:00,
2013-12-03 15:19:00,49.1,48.0,30.09,SSW,199,7.0,-999.0,94,-99.99,,,0.00,7,weatherlink.com 1.10,2013-12-03 15:19:00,
2013-12-03 15:34:00,49.1,48.0,30.08,South,176,6.0,-999.0,94,-99.99,,,0.00,0,weatherlink.com 1.10,2013-12-03 15:34:00,
2013-12-03 15:49:00,49.3,47.0,30.08,SSE,151,10.0,-999.0,93,-99.99,,,0.00,0,weatherlink.com 1.10,2013-12-03 15:49:00,
2013-12-03 16:04:00,49.4,48.0,30.08,SSW,196,15.0,-999.0,93,-99.99,,,0.00,0,weatherlink.com 1.10,2013-12-03 16:04:00,
2013-12-03 16:19:00,49.5,48.0,30.08,SSW,195,10.0,-999.0,93,-99.99,,,0.00,0,weatherlink.com 1.10,2013-12-03 16:19:00,
2013-12-03 16:34:00,49.6,48.0,30.08,SSW,213,11.0,-999.0,93,-99.99,,,0.00,0,weatherlink.com 1.10,2013-12-03 16:34:00,
2013-12-03 16:49:00,49.6,48.0,30.07,SSE,157,4.0,-999.0,93,-99.99,,,0.00,0,weatherlink.com 1.10,2013-12-03 16:49:00,
2013-12-03 17:04:00,49.6,48.0,30.07,SSW,201,15.0,-999.0,93,-99.99,,,0.00,0,weatherlink.com 1.10,2013-12-03 17:04:00,
2013-12-03 17:19:00,49.7,48.0,30.07,SSW,202,12.0,-999.0,93,-99.99,,,0.00,0,weatherlink.com 1.10,2013-12-03 17:19:00,
2013-12-03 17:34:00,49.7,48.0,30.07,SSW,195,8.0,-999.0,93,-99.99,,,0.00,0,weatherlink.com 1.10,2013-12-03 17:34:00,
2013-12-03 17:49:00,49.6,48.0,30.06,SSE,157,15.0,-999.0,93,-99.99,,,0.01,0,weatherlink.com 1.10,2013-12-03 17:49:00,
2013-12-03 18:04:00,49.4,48.0,30.06,South,177,12.0,-999.0,94,-99.99,,,0.03,0,weatherlink.com 1.10,2013-12-03 18:04:00,
2013-12-03 18:19:00,49.4,48.0,30.06,SSW,207,16.0,-999.0,95,-99.99,,,0.05,0,weatherlink.com 1.10,2013-12-03 18:19:00,
2013-12-03 18:34:00,49.3,48.0,30.07,West,260,9.0,-999.0,95,-99.99,,,0.06,0,weatherlink.com 1.10,2013-12-03 18:34:00,
2013-12-03 18:49:00,47.6,46.0,30.07,West,273,8.0,-999.0,95,-99.99,,,0.06,0,weatherlink.com 1.10,2013-12-03 18:49:00,
2013-12-03 19:04:00,46.4,45.0,30.08,WNW,294,15.0,-999.0,95,-99.99,,,0.09,0,weatherlink.com 1.10,2013-12-03 19:04:00,
2013-12-03 19:19:00,45.4,44.0,30.08,WNW,286,6.0,-999.0,95,-99.99,,,0.09,0,weatherlink.com 1.10,2013-12-03 19:19:00,
2013-12-03 19:34:00,44.8,44.0,30.09,West,261,5.0,-999.0,95,-99.99,,,0.09,0,weatherlink.com 1.10,2013-12-03 19:34:00,
2013-12-03 19:49:00,44.2,43.0,30.10,WNW,289,6.0,-999.0,95,-99.99,,,0.09,0,weatherlink.com 1.10,2013-12-03 19:49:00,
2013-12-03 20:05:00,43.7,42.0,30.12,ENE,71,1.0,-999.0,95,-99.99,,,0.09,0,weatherlink.com 1.10,2013-12-03 20:05:00,
2013-12-03 20:20:00,43.6,42.0,30.12,WNW,292,4.0,-999.0,95,-99.99,,,0.09,0,weatherlink.com 1.10,2013-12-03 20:20:00,
2013-12-03 20:35:00,43.3,42.0,30.12,NNW,347,1.0,-999.0,95,-99.99,,,0.09,0,weatherlink.com 1.10,2013-12-03 20:35:00,
2013-12-03 20:50:00,42.7,41.0,30.12,NNW,344,0.0,-999.0,95,-99.99,,,0.09,0,weatherlink.com 1.10,2013-12-03 20:50:00,
2013-12-03 21:05:00,42.2,41.0,30.13,NE,49,0.0,-999.0,94,-99.99,,,0.09,0,weatherlink.com 1.10,2013-12-03 21:05:00,
2013-12-03 21:20:00,41.7,40.0,30.14,NE,49,1.0,-999.0,94,-99.99,,,0.09,0,weatherlink.com 1.10,2013-12-03 21:20:00,
2013-12-03 21:35:00,41.2,40.0,30.14,NE,49,0.0,-999.0,94,-99.99,,,0.09,0,weatherlink.com 1.10,2013-12-03 21:35:00,
2013-12-03 21:50:00,40.9,39.0,30.15,West,278,0.0,-999.0,93,-99.99,,,0.09,0,weatherlink.com 1.10,2013-12-03 21:50:00,
2013-12-03 22:05:00,40.7,39.0,30.15,South,186,3.0,-999.0,93,-99.99,,,0.09,0,weatherlink.com 1.10,2013-12-03 22:05:00,
2013-12-03 22:20:00,40.8,39.0,30.15,South,180,2.0,-999.0,93,-99.99,,,0.09,0,weatherlink.com 1.10,2013-12-03 22:20:00,
2013-12-03 22:35:00,40.1,38.0,30.16,South,180,0.0,-999.0,92,-99.99,,,0.09,0,weatherlink.com 1.10,2013-12-03 22:35:00,
2013-12-03 22:50:00,39.0,37.0,30.16,South,180,0.0,-999.0,93,-99.99,,,0.09,0,weatherlink.com 1.10,2013-12-03 22:50:00,
2013-12-03 23:05:00,39.0,38.0,30.17,South,180,0.0,-999.0,94,-99.99,,,0.09,0,weatherlink.com 1.10,2013-12-03 23:05:00,
2013-12-03 23:20:00,38.2,36.0,30.18,South,180,0.0,-999.0,93,-99.99,,,0.09,0,weatherlink.com 1.10,2013-12-03 23:20:00,
2013-12-03 23:35:00,37.3,36.0,30.18,South,180,0.0,-999.0,94,-99.99,,,0.09,0,weatherlink.com 1.10,2013-12-03 23:35:00,
2013-12-03 23:50:00,37.1,36.0,30.18,South,180,0.0,-999.0,94,-99.99,,,0.09,0,weatherlink.com 1.10,2013-12-03 23:50:00,